STARLINK-4360, 53482

Orbit data source: Space-Track

STARLINK-4360, 53482 is a payload satellite owned by SpaceX/Seattle (US) in SSO that was launched on Fri, 12 Aug 2022 UTC via an FALCON 9 launch vehicle from the Air Force Western Test Range (AFWTR). Payload-class satellites include a variety of spacecraft equipped with specific instruments for various scientific and technological missions. These include communications satellites like Starlink; space stations such as the ISS; scientific satellites like the Hubble; Earth observation satellites from companies like Planet Labs, Umbra, and HawkEye 360; GPS; miniature CubeSats for education and research; and military/defense satellites.

Loading next visibility...
Identifier
53482, 2022-099T
Orbit
SSO
Country
Flag of USUS
Related business
Manufacturer
SpaceX/Seattle
Mission
Operational Commercial Communications
Bus & Motor
STARLINK, Unknown motor
Mass
300 kg wet, ~275 kg dry
Launch date (UTC)
2022-08-12 (3 years ago)
Launch vehicle
FALCON 9
Launch site
Air Force Western Test Range (AFWTR)
Object type
Payload
Rocket body
Debris
Shape & HBR
Box + 1 Pan, 10.1 m
Radar Cross Section
13.562 m², Large (>1 m²)

Expand to show TLE details & history
Last TLE update: 6 hours ago

TLE from 6 hours ago
0 STARLINK-4360
1 53482U 22099T   25293.58920926  .00002729  00000-0  21690-3 0  9997
2 53482  97.6033  53.0788 0001458  85.7611 274.3780 15.01258783174967
Epoch: 2025-10-20T14:08Z
TLE epoch observation values (Epoch: 2025-10-20T14:08:27.680Z)
Latitude
0.00001°
Longitude
171.67411°
Altitude
565.996 km
Speed
7.578 km/s
True Right ascension
03h 32m 18s
True Declination
0° 00' 00"
Sunlit
Object was in full shadow at epoch
Visualization orbit readout
Latitude
Unknown
Longitude
Unknown
Altitude
Unknown
Speed
Unknown
Apparent Right ascension
Unknown
Apparent Declination
Unknown
Sunlit
N/A
Visualization observer readout
Local Sidereal Time
15:05:55
Azimuth
Unknown
Elevation
Unknown
Doppler factor
Unknown
Orbital elements
Apogee altitude
561.025 km
Perigee altitude
559.001 km
Semi-major axis
6,938.15 km
Eccentricity
0.00015
Inclination
97.6033°
RAAN
53.0788°
Arg. of periapsis
85.7611°
True anomaly
274.36134°
Mean anomaly
274.378°
Eccentric anomaly
274.36967°
Mean motion
3.75559 °/min
Orbital period
95.86 mins
BSTAR
0.0002169
Loading maneuver chart data...
Computing Atmospheric mass density...
Loading historical data...
Loading historical data...
Loading historical data...
Loading historical data...
Loading historical data...
Loading historical data...
Loading historical data...

Documentation

Showing up to 5 results
|